Wetbulb
56.21 52.70 50.60 53.37 54.44 53.42 52.28 51.41 50.73 53.07 54.96 53.31 52.65 53.09 54.59 56.90 57.68 56.84 57.76 59.50 61.12 65.50 62.72 61.86 63.10 66.56 67.34 69.08 69.80 70.45 71.61 72.61 71.80 70.36 68.61 67.44 66.67 65.84 65.49 66.26 67.52 66.19 64.45 65.77
54.08 50.63 55.31 55.43 54.20 52.76 52.54 51.57 51.49 53.81 55.09 54.05 53.26 52.75 54.87 56.06 56.80 57.39 57.52 58.86 61.27 65.37 63.69 63.31 64.28 66.28 67.00 68.71 69.34 69.85 70.76 72.62 72.25 69.69 68.34 68.34 67.51 66.18 65.04 63.35 67.17 65.48 64.59 64.15
51.71 53.85 55.63 53.77 52.53 52.36 52.24 51.95 51.62 50.34 52.30 53.41 52.38 50.93 53.41 57.27 58.22 58.54 59.52 61.64 63.21 64.91 63.42 64.98 64.91 65.62 66.68 67.99 69.64 70.21 69.17 68.71 68.98 67.28 65.86 63.94 63.36 61.73 60.64 60.58 60.20 62.23 61.51 62.35
53.38 55.94 53.81 52.81 52.29 53.36 50.22 53.73 52.19 50.44 49.29 45.57 51.96 44.20 52.36 54.75 54.47 57.30 58.74 59.71 61.26 62.81 64.55 65.16 64.29 65.55 62.99 64.95 63.84 67.04 66.90 67.18 66.73 66.70 64.88 64.51 60.84 58.64 59.25 59.20 59.36 59.58 60.04 58.97
52.96 53.31 52.59 51.73 53.14 54.09 51.42 54.00 52.86 52.16 50.14 49.97 49.60 46.68 50.94 53.91 53.09 54.00 57.05 59.38 60.90 62.70 63.68 61.42 60.76 63.54 65.06 63.15 64.35 65.90 66.64 66.25 66.59 67.48 67.20 63.23 61.04 59.48 59.48 58.53 59.09 58.40 58.52 59.95
54.97 57.22 54.84 54.36 55.07 54.52 56.21 54.30 52.77 52.05 50.81 45.24 49.26 47.53 49.15 51.07 52.29 53.88 56.89 57.88 59.71 61.30 62.37 64.35 64.64 63.81 64.84 63.52 63.27 64.63 65.63 65.68 66.14 65.66 65.05 64.11 62.36 60.04 58.36 57.68 56.73 56.37 56.04 56.63
53.01 52.93 55.37 55.59 53.47 56.21 54.56 51.86 45.21 44.82 44.66 43.78 50.97 47.63 49.87 53.43 53.97 54.42 55.11 56.87 58.58 59.73 60.53 61.80 63.12 62.83 62.74 62.50 62.27 61.81 63.50 63.58 64.49 63.98 62.88 62.60 61.29 61.06 58.53 57.03 55.25 54.88 54.21 53.75
50.43 47.62 53.76 56.17 53.86 51.58 52.12 51.19 46.70 39.77 40.18 42.99 49.48 45.30 49.46 54.66 55.86 55.97 56.42 57.26 57.89 58.92 59.67 59.37 60.21 60.69 59.83 61.29 61.60 61.40 61.58 62.25 63.09 61.58 61.34 61.67 62.08 57.99 57.41 56.56 55.02 54.39 53.86 53.34
51.21 50.36 55.59 55.37 55.55 54.21 51.72 49.47 52.45 46.99 48.85 45.28 47.69 49.76 52.99 54.94 54.88 55.52 55.64 56.70 57.39 58.53 59.80 59.63 59.94 60.80 61.10 61.99 62.56 61.68 62.31 61.45 60.64 60.42 60.86 61.65 59.71 58.12 56.75 56.62 55.47 53.90 55.13 54.67
54.33 49.45 54.91 55.08 56.52 55.82 53.81 54.36 47.37 48.74 42.24 40.02 44.92 46.74 47.49 52.09 53.19 54.86 55.18 55.77 56.83 59.10 58.73 59.00 59.29 61.78 62.07 61.61 62.93 62.97 59.91 59.00 59.26 59.58 59.71 58.40 58.17 57.40 56.37 55.68 55.33 53.62 53.86 55.36
55.29 54.18 52.38 55.34 53.84 52.33 52.17 49.78 51.26 50.96 48.43 42.89 41.42 45.41 54.18 53.22 54.04 54.30 55.21 55.69 56.71 57.55 57.48 57.90 58.25 60.05 60.57 60.02 58.28 59.26 58.06 57.28 57.34 58.99 58.60 57.90 56.88 56.38 56.04 54.99 54.04 53.17 53.19 54.25
57.54 55.63 50.04 51.39 55.85 56.31 54.15 51.00 51.03 45.99 44.95 47.60 46.09 45.55 56.19 55.31 55.41 56.22 55.91 56.28 56.69 57.25 57.50 57.66 57.81 58.78 59.44 59.32 58.26 57.29 57.97 56.91 57.53 58.58 57.55 56.72 55.74 55.62 54.31 53.01 52.47 52.46 52.02 52.83
58.80 53.64 48.10 49.62 52.90 54.94 52.53 51.95 51.63 51.91 51.47 46.14 43.80 46.33 55.80 55.97 55.96 56.25 55.91 56.20 56.81 57.43 57.50 57.69 56.99 57.45 57.83 58.08 57.70 56.67 56.65 56.49 57.89 57.44 56.28 54.68 55.00 53.48 51.74 51.45 51.98 52.26 51.74 51.01
60.05 54.99 51.35 46.54 49.26 52.11 49.52 50.71 51.44 51.50 48.12 46.55 46.92 48.69 52.23 53.77 54.39 54.78 55.72 56.71 56.59 56.87 57.57 56.82 57.19 57.38 57.20 57.68 56.91 56.09 56.44 57.04 56.33 55.79 54.41 53.53 52.28 51.68 50.95 51.01 51.05 51.36 50.54 49.70
58.46 51.78 52.48 51.93 52.14 51.95 50.53 49.85 50.41 48.77 49.09 46.88 48.50 48.89 51.75 54.20 54.45 54.83 55.91 56.34 56.05 56.14 56.27 56.74 56.71 56.97 56.18 56.68 56.28 56.04 56.05 57.40 56.16 54.78 53.63 53.26 52.05 50.77 50.38 50.41 51.47 50.40 49.56 49.45
58.71 51.34 51.74 49.13 51.71 51.03 49.29 50.88 50.89 49.97 49.70 49.64 50.10 49.80 55.27 55.96 55.56 55.10 55.78 55.81 55.25 55.33 55.91 56.15 56.01 56.47 55.88 55.73 55.18 55.40 55.86 56.38 55.96 53.43 52.40 51.92 50.53 49.89 49.99 50.60 50.56 49.79 49.34 49.16
55.94 53.68 50.77 46.44 50.80 50.08 46.51 49.91 50.78 50.87 52.18 51.50 48.14 52.16 55.24 54.18 54.55 55.03 55.12 55.58 55.38 55.63 55.94 55.78 56.00 56.42 56.50 55.82 55.84 54.95 55.09 55.64 53.59 52.26 51.19 50.45 50.02 50.16 50.36 49.59 49.04 48.94 48.97 49.25
56.20 55.83 52.46 46.98 49.48 41.08 50.23 54.60 53.64 51.14 52.11 53.28 53.23 54.22 55.58 55.08 56.20 56.23 57.35 56.98 56.93 56.36 56.15 56.01 55.83 56.68 56.81 56.32 56.10 55.31 55.52 54.31 52.38 50.60 50.95 50.34 49.87 50.05 49.37 48.68 48.64 48.90 49.00 48.84
59.49 56.82 50.52 47.18 46.31 49.34 50.66 52.66 51.74 50.51 50.83 55.08 53.42 55.06 55.61 56.31 56.66 56.47 58.23 57.89 57.27 57.84 58.03 57.37 57.42 57.11 57.66 56.59 55.86 55.24 54.12 52.18 49.94 50.49 49.81 49.56 50.14 49.20 48.48 48.28 48.56 48.85 48.64 49.00
55.82 52.50 51.73 48.83 43.99 41.54 51.05 54.56 56.67 55.32 47.23 54.51 56.71 56.27 55.54 56.10 50.66 53.46 59.26 58.83 58.44 59.23 59.17 57.51 56.88 57.19 57.51 56.53 55.94 54.89 52.20 50.08 49.28 49.39 49.62 49.75 50.65 49.41 48.33 48.68 48.65 49.01 49.47 49.38
50.31 50.74 48.21 47.03 43.04 47.50 52.76 54.72 56.83 45.90 49.18 58.15 58.25 58.81 58.30 55.05 57.47 61.19 61.01 59.76 59.67 59.55 58.66 57.90 57.37 56.70 56.89 56.90 55.84 53.22 51.31 48.50 48.70 49.80 49.78 49.75 50.12 49.23 48.77 48.58 48.92 49.22 49.43 49.25
50.01 48.80 47.74 48.16 44.29 40.91 55.99 53.90 50.51 57.21 60.78 59.22 58.97 60.26 59.11 59.91 60.29 60.25 59.71 60.16 59.52 58.69 58.57 57.70 57.04 56.65 57.41 56.24 53.95 51.10 49.12 48.72 49.13 49.20 49.56 50.08 49.19 49.06 48.64 48.37 49.28 49.20 48.62 46.75
47.46 52.66 49.11 49.31 49.47 56.83 57.65 57.27 55.59 59.38 60.51 59.21 58.94 60.88 59.33 59.80 58.80 59.46 59.17 59.56 59.84 59.08 58.70 57.47 56.39 56.02 56.51 55.25 52.99 49.27 48.77 49.13 48.69 48.72 49.58 50.04 48.68 48.59 48.45 48.24 46.51 46.85 46.31 46.60
54.00 56.45 51.33 51.86 55.22 55.77 58.24 60.29 60.11 58.92 57.93 56.20 59.77 59.82 59.60 59.35 60.37 60.18 60.29 59.86 60.05 59.66 58.44 57.20 55.70 54.56 53.70 53.19 51.33 50.65 49.20 49.52 48.55 48.50 49.38 49.97 47.49 47.23 48.04 45.75 45.74 45.81 43.26 45.52
52.97 54.91 53.64 53.47 55.46 56.77 58.00 59.07 59.48 58.76 58.46 56.68 57.21 58.40 59.53 60.17 59.95 60.00 59.33 60.34 60.68 59.77 58.35 57.13 55.27 54.40 52.61 52.34 50.70 50.27 49.38 49.65 48.13 48.12 49.41 49.09 47.39 47.40 47.16 44.50 41.99 42.45 42.81 41.15
54.06 54.23 50.25 49.84 56.65 56.91 57.65 59.78 60.28 58.98 58.27 59.09 59.12 58.90 60.10 59.81 59.03 59.94 58.90 60.10 61.49 59.77 58.46 56.47 55.30 53.69 52.50 51.64 50.52 50.29 49.77 49.41 48.71 47.68 49.32 48.16 47.00 47.00 47.23 48.39 46.53 41.07 39.95 39.56
MSLP
1004.67 1004.34 1003.67 1003.60 1003.86 1004.14 1004.16 1003.93 1003.83 1003.66 1003.74 1004.45 1004.97 1004.97 1004.81 1004.43 1004.83 1005.17 1005.68 1006.22 1006.92 1008.37 1012.03 1014.00 1016.56 1013.35 1013.09 1013.90 1014.40 1014.84 1015.58 1016.12 1016.31 1016.54 1016.48 1016.48 1016.48 1016.37 1016.40 1016.07 1015.72 1016.01 1016.15 1016.16
1004.15 1003.86 1003.93 1004.30 1004.77 1004.88 1004.78 1004.58 1004.34 1004.39 1004.41 1004.81 1005.02 1004.88 1004.62 1004.57 1004.99 1005.80 1006.31 1006.57 1006.91 1008.60 1010.88 1012.61 1013.55 1012.28 1012.51 1012.85 1013.29 1014.04 1015.00 1015.63 1016.12 1016.53 1016.91 1016.93 1016.87 1016.67 1016.47 1016.22 1016.37 1016.45 1016.34 1016.45
1004.05 1004.56 1004.70 1004.94 1004.87 1005.20 1005.18 1004.85 1005.26 1005.82 1005.66 1005.41 1004.93 1004.35 1003.87 1005.23 1006.08 1006.65 1007.10 1007.15 1007.42 1008.31 1010.05 1010.85 1011.85 1012.22 1012.14 1012.23 1013.42 1013.51 1014.81 1015.76 1016.52 1017.02 1017.23 1017.33 1017.35 1017.17 1016.83 1016.88 1016.66 1016.53 1016.61 1016.55
1004.13 1004.73 1005.21 1005.43 1005.32 1005.77 1005.86 1006.31 1006.48 1006.29 1006.09 1005.50 1005.11 1004.63 1004.84 1005.79 1006.46 1007.18 1007.66 1007.98 1008.10 1008.25 1009.46 1010.57 1011.59 1011.91 1013.14 1013.44 1014.84 1014.33 1015.27 1015.87 1016.45 1017.19 1017.58 1017.81 1017.80 1017.60 1017.66 1017.37 1017.30 1017.21 1016.98 1016.77
1004.46 1004.83 1005.53 1005.55 1006.05 1006.62 1006.69 1006.92 1006.59 1006.41 1006.18 1005.89 1005.06 1005.16 1005.42 1006.05 1006.65 1007.26 1007.75 1007.83 1008.36 1008.90 1009.22 1011.30 1012.77 1013.31 1013.28 1012.92 1013.29 1014.49 1015.20 1015.82 1016.49 1016.95 1017.33 1017.57 1017.70 1017.75 1017.58 1017.60 1017.49 1017.52 1017.24 1016.78
1005.08 1005.56 1006.01 1006.07 1006.53 1006.90 1007.09 1006.70 1006.34 1005.92 1005.64 1005.49 1005.43 1005.94 1005.89 1006.60 1007.43 1007.72 1008.04 1008.61 1008.91 1009.00 1009.36 1010.15 1012.27 1013.43 1013.47 1013.22 1013.69 1014.45 1015.14 1015.92 1016.43 1016.84 1017.15 1017.38 1017.49 1017.60 1017.53 1017.63 1017.63 1017.41 1017.33 1016.95
1005.44 1005.75 1006.40 1007.13 1006.66 1006.39 1006.99 1007.30 1006.59 1005.92 1005.51 1005.45 1006.01 1006.10 1006.68 1007.20 1007.68 1008.00 1008.49 1008.86 1009.11 1009.41 1009.66 1010.72 1011.67 1012.18 1012.86 1013.31 1013.85 1014.56 1015.31 1015.92 1016.36 1016.69 1016.91 1017.11 1017.25 1017.31 1017.49 1017.55 1017.54 1017.64 1017.45 1017.08
1005.81 1006.17 1006.55 1007.22 1007.31 1007.72 1007.78 1008.11 1008.12 1008.10 1007.50 1006.63 1006.13 1005.83 1007.31 1007.88 1008.39 1008.67 1009.10 1009.49 1009.70 1009.65 1010.08 1010.68 1011.28 1012.02 1012.86 1013.56 1014.38 1015.06 1015.58 1015.91 1016.20 1016.58 1016.82 1016.87 1016.99 1017.32 1017.43 1017.47 1017.52 1017.44 1017.35 1017.11
1006.35 1006.58 1006.98 1007.47 1007.79 1008.15 1008.22 1008.47 1009.14 1009.42 1008.78 1007.97 1006.54 1007.11 1007.92 1008.12 1008.23 1008.71 1009.09 1009.30 1009.72 1010.08 1010.64 1011.28 1011.75 1012.41 1013.20 1013.88 1014.55 1015.12 1015.42 1015.84 1016.19 1016.45 1016.63 1016.83 1017.14 1017.32 1017.35 1017.36 1017.36 1017.12 1017.00 1016.83
1007.76 1007.76 1007.09 1007.87 1007.90 1008.13 1008.76 1009.11 1009.17 1009.37 1009.16 1008.54 1007.56 1007.41 1007.90 1008.25 1008.65 1009.11 1009.54 1009.83 1010.00 1010.04 1010.79 1011.42 1011.85 1012.41 1013.10 1013.79 1014.38 1014.84 1015.37 1015.80 1016.13 1016.31 1016.44 1016.71 1016.93 1017.12 1017.17 1017.13 1016.99 1016.98 1016.91 1016.64
1008.61 1008.73 1008.39 1007.71 1008.39 1008.44 1008.64 1008.72 1009.07 1009.60 1010.21 1009.64 1009.07 1008.34 1008.45 1008.93 1009.18 1009.55 1010.06 1010.34 1010.32 1010.48 1010.97 1011.39 1011.89 1012.46 1013.08 1013.71 1014.34 1015.02 1015.52 1015.87 1016.13 1016.21 1016.42 1016.66 1016.91 1016.91 1016.90 1016.96 1016.91 1016.90 1016.74 1016.50
1009.53 1009.55 1009.21 1008.53 1008.15 1008.48 1008.82 1009.15 1009.59 1010.15 1010.52 1010.08 1009.91 1009.02 1008.73 1008.76 1009.02 1009.38 1010.20 1010.48 1010.94 1011.56 1011.80 1011.95 1012.22 1012.67 1013.34 1014.02 1014.72 1015.28 1015.76 1016.00 1016.08 1016.18 1016.39 1016.67 1016.77 1016.91 1017.09 1017.17 1017.07 1016.83 1016.55 1016.33
1010.14 1010.15 1009.86 1009.16 1008.48 1009.05 1009.11 1009.06 1009.69 1010.28 1010.95 1010.93 1010.40 1009.33 1008.82 1008.70 1009.17 1009.75 1010.12 1010.71 1010.99 1011.17 1011.43 1011.84 1012.28 1012.96 1013.69 1014.38 1015.01 1015.58 1015.93 1016.04 1016.12 1016.33 1016.43 1016.70 1016.72 1016.86 1017.06 1017.02 1016.78 1016.44 1016.21 1016.06
1011.18 1010.89 1010.67 1010.17 1009.42 1009.19 1009.04 1009.09 1009.42 1009.71 1010.05 1010.29 1009.86 1009.14 1008.69 1008.81 1009.45 1010.16 1010.57 1010.92 1011.08 1011.37 1011.70 1012.07 1012.60 1013.31 1014.09 1014.74 1015.37 1015.87 1016.10 1016.22 1016.55 1016.74 1016.70 1016.88 1017.00 1016.94 1016.88 1016.70 1016.35 1016.07 1015.98 1015.70
1011.70 1011.32 1010.97 1010.38 1009.89 1009.41 1009.22 1009.08 1009.20 1009.32 1009.46 1009.47 1009.41 1009.17 1009.01 1009.32 1009.85 1010.38 1010.77 1011.11 1011.34 1011.60 1011.98 1012.41 1013.00 1013.77 1014.48 1015.15 1015.74 1016.10 1016.31 1016.37 1016.78 1016.86 1016.83 1017.05 1017.07 1016.95 1016.66 1016.34 1015.96 1015.78 1015.55 1015.22
1011.72 1011.69 1011.40 1010.86 1010.35 1009.80 1009.00 1008.90 1009.06 1008.95 1008.96 1009.05 1009.23 1009.26 1009.36 1009.71 1010.00 1010.35 1010.76 1011.12 1011.53 1012.00 1012.46 1012.89 1013.40 1014.14 1014.95 1015.60 1016.06 1016.32 1016.35 1016.53 1016.88 1017.06 1017.13 1017.06 1017.02 1016.71 1016.38 1016.06 1015.76 1015.45 1015.10 1014.66
1011.54 1011.95 1011.78 1011.08 1010.56 1009.73 1009.20 1008.92 1008.59 1008.59 1008.23 1008.77 1009.14 1009.40 1009.51 1009.93 1010.26 1010.72 1011.03 1011.16 1011.85 1012.52 1012.96 1013.43 1013.98 1014.70 1015.42 1015.95 1016.27 1016.38 1016.57 1016.68 1017.12 1017.28 1017.10 1017.03 1016.79 1016.47 1016.16 1015.97 1015.63 1015.15 1014.63 1014.19
1011.51 1012.14 1012.23 1011.67 1011.01 1010.05 1009.01 1009.01 1008.77 1009.13 1009.27 1009.45 1009.67 1009.75 1009.74 1010.11 1010.58 1011.03 1010.96 1011.46 1012.39 1013.12 1013.72 1014.16 1014.61 1015.21 1015.79 1016.17 1016.36 1016.62 1016.65 1016.93 1017.37 1017.42 1017.18 1016.98 1016.68 1016.35 1016.10 1015.82 1015.37 1014.88 1014.38 1013.94
1011.45 1012.30 1012.42 1012.08 1011.23 1010.23 1009.31 1008.79 1009.11 1009.50 1009.97 1010.04 1010.20 1010.03 1010.05 1010.39 1010.78 1011.50 1012.03 1012.55 1012.97 1013.56 1014.21 1014.60 1015.03 1015.55 1015.91 1016.21 1016.57 1016.69 1016.88 1017.38 1017.68 1017.46 1017.27 1016.99 1016.55 1016.31 1016.04 1015.64 1015.15 1014.65 1014.16 1013.67
1012.20 1013.77 1013.79 1013.07 1012.39 1011.33 1010.67 1009.69 1009.76 1010.23 1010.67 1010.54 1010.66 1010.61 1010.79 1010.83 1011.27 1012.04 1012.35 1012.74 1013.10 1013.84 1014.48 1014.97 1015.33 1015.59 1015.84 1016.32 1016.62 1016.74 1017.20 1017.60 1017.79 1017.72 1017.42 1016.96 1016.41 1016.28 1015.95 1015.51 1014.99 1014.45 1013.96 1013.45
1012.72 1013.51 1013.72 1013.60 1013.66 1013.96 1012.31 1012.62 1010.98 1010.88 1011.91 1011.32 1011.25 1011.43 1011.64 1011.42 1011.65 1011.90 1012.01 1012.15 1012.67 1013.34 1014.03 1014.63 1015.09 1015.49 1015.96 1016.29 1016.62 1017.07 1017.46 1017.96 1018.15 1017.81 1017.36 1016.82 1016.41 1016.26 1015.90 1015.40 1014.84 1014.23 1013.62 1013.35
1011.82 1012.77 1013.18 1013.72 1014.26 1013.83 1013.16 1013.52 1014.15 1012.24 1011.64 1011.68 1011.58 1011.50 1011.46 1011.53 1011.63 1011.80 1011.82 1011.82 1012.04 1012.72 1013.42 1014.22 1014.90 1015.47 1015.91 1016.32 1016.84 1017.41 1017.80 1018.35 1018.12 1017.71 1017.22 1016.60 1016.34 1016.22 1015.80 1015.27 1014.67 1014.10 1013.70 1013.47
1010.33 1011.97 1012.69 1014.33 1013.48 1012.42 1013.02 1012.93 1012.71 1012.43 1012.01 1011.84 1011.70 1011.62 1011.52 1011.74 1011.78 1011.74 1011.84 1011.78 1011.79 1012.53 1013.35 1014.07 1014.74 1015.39 1015.93 1016.47 1017.18 1017.66 1018.20 1018.28 1018.07 1017.64 1017.07 1016.54 1016.45 1016.20 1015.75 1015.37 1014.97 1014.53 1014.25 1013.87
1009.57 1011.04 1011.54 1012.26 1011.70 1011.86 1012.40 1012.39 1012.24 1012.72 1012.87 1012.61 1012.65 1011.66 1011.78 1011.95 1011.91 1011.67 1011.74 1011.75 1011.72 1012.41 1013.16 1013.93 1014.74 1015.32 1015.93 1016.58 1017.27 1017.71 1018.33 1018.29 1018.02 1017.50 1017.01 1016.56 1016.54 1016.26 1015.85 1015.88 1015.44 1015.15 1014.92 1014.52
1010.02 1010.23 1010.52 1010.75 1010.85 1011.10 1011.35 1012.01 1012.38 1012.72 1012.63 1012.08 1011.81 1011.90 1011.15 1011.62 1011.67 1011.44 1011.42 1011.55 1011.63 1012.28 1013.15 1014.09 1014.85 1015.47 1016.00 1016.59 1017.22 1017.76 1018.28 1018.18 1017.87 1017.45 1016.92 1016.74 1016.68 1016.42 1016.03 1016.21 1016.15 1015.69 1015.45 1015.34
1010.45 1010.59 1011.08 1011.06 1011.28 1011.52 1011.70 1011.72 1011.99 1012.39 1012.50 1012.47 1012.39 1012.06 1011.83 1011.71 1011.57 1011.59 1011.54 1011.43 1011.45 1012.16 1013.08 1014.17 1014.91 1015.62 1016.13 1016.71 1017.19 1017.64 1018.11 1018.03 1017.67 1017.39 1016.89 1016.97 1016.89 1016.55 1016.35 1016.29 1016.29 1016.09 1015.78 1015.43
Wind_Speed
15 11 16 1 12 11 10 10 9 9 1 2 8 12 15 6 8 4 10 9 12 5 27 27 20 12 12 8 7 4 2 1 1 2 4 5 5 6 6 6 6 7 3 5
11 13 9 9 8 9 9 11 10 12 12 6 11 15 14 11 4 7 11 11 9 11 22 22 27 12 11 10 8 7 6 4 3 5 6 5 4 5 6 7 5 3 5 6
13 12 9 5 7 4 11 11 9 12 15 14 18 19 20 13 7 7 7 10 8 9 15 13 12 8 8 8 2 5 11 10 7 9 5 6 7 7 6 8 8 8 11 8
8 12 5 4 10 6 8 12 11 13 12 12 15 11 13 9 3 4 0 4 9 11 12 9 3 4 10 15 5 11 9 7 6 6 4 5 5 7 6 8 8 9 11 13
5 5 5 7 11 5 11 12 14 12 12 13 17 7 8 7 9 8 10 1 3 6 10 18 21 5 6 6 0 6 7 5 3 1 2 3 5 6 6 8 9 11 10 10
5 8 4 8 6 2 10 13 19 17 14 11 3 3 12 9 7 7 9 6 9 9 7 11 13 13 6 5 5 5 5 7 5 4 4 5 6 7 7 7 7 6 6 7
8 8 9 4 10 7 12 12 10 2 4 4 7 7 9 10 8 9 8 9 3 2 3 10 3 8 7 8 10 7 8 6 5 4 5 5 6 6 6 8 7 8 8 8
12 6 2 5 5 7 13 6 7 8 11 15 16 3 9 12 10 8 4 6 10 8 11 11 10 8 7 10 10 8 7 6 6 7 6 6 5 5 6 6 7 7 7 9
9 10 5 1 2 2 10 7 11 7 15 11 11 17 12 5 8 6 1 3 3 5 5 6 6 7 6 5 5 5 5 6 7 7 6 5 5 7 7 8 7 7 7 8
7 5 5 7 5 4 5 4 4 5 6 10 13 7 8 9 10 10 12 12 13 4 1 4 4 2 1 4 3 4 8 8 8 9 7 7 7 7 8 8 7 7 9 9
6 5 9 9 9 4 4 9 5 1 5 8 8 2 10 6 5 9 11 11 10 8 6 6 8 6 6 6 9 9 9 10 10 8 8 8 7 9 8 7 8 7 9 11
3 3 8 17 10 2 7 6 6 4 8 10 9 9 6 4 6 5 3 7 7 7 7 7 8 7 7 7 8 8 8 10 10 8 8 7 9 8 10 10 10 9 9 9
2 4 6 7 4 8 8 1 3 6 4 10 9 8 5 9 10 11 8 5 7 4 6 8 8 8 8 8 8 9 9 10 9 10 11 9 9 9 9 10 11 11 9 7
3 4 8 10 15 15 10 12 11 11 5 10 13 16 16 13 11 10 10 11 10 10 9 9 7 7 8 8 8 9 9 9 10 10 10 10 9 8 9 10 11 8 7 10
2 6 10 13 17 12 16 15 14 15 14 13 12 14 12 8 9 7 5 5 7 9 11 10 8 7 8 9 9 9 9 8 9 10 10 9 10 10 10 11 6 7 8 9
5 5 9 13 14 16 19 10 15 18 15 14 12 13 8 7 6 9 9 8 8 11 12 11 9 8 9 8 9 9 9 8 9 9 10 10 10 10 10 9 10 9 10 10
6 6 9 11 14 13 8 15 10 14 7 6 8 10 12 10 9 8 11 7 8 10 11 11 9 8 7 8 8 9 10 8 8 9 12 10 10 10 9 10 11 11 11 10
7 7 9 11 13 13 13 4 10 6 9 9 10 9 8 5 8 11 15 6 9 11 10 10 7 7 7 7 8 10 9 9 10 12 10 10 11 10 9 11 11 11 9 9
7 9 10 10 12 14 14 4 2 2 4 8 13 14 6 8 9 8 11 7 6 7 6 6 7 7 6 7 9 9 9 10 9 10 12 12 12 8 11 11 11 10 8 8
10 15 11 11 14 16 14 7 8 3 6 8 14 9 6 8 7 5 5 8 7 6 7 7 6 6 6 7 8 8 9 10 9 11 12 12 9 7 11 11 11 8 8 6
9 10 12 12 4 15 16 25 6 4 2 7 7 1 7 7 7 7 9 3 2 1 2 3 5 6 6 6 7 9 10 10 9 10 12 13 5 9 10 10 9 9 9 3
10 8 6 5 4 9 5 7 14 6 5 6 9 10 7 7 8 8 10 6 2 1 3 4 5 5 5 7 8 9 9 9 9 11 12 9 5 8 8 10 10 10 7 4
1 7 8 9 8 9 7 9 11 15 7 8 6 9 7 8 10 10 10 10 2 2 1 2 4 5 6 8 8 9 8 9 9 10 12 8 6 9 8 8 10 6 6 4
9 8 3 4 7 5 10 6 13 13 8 8 13 4 5 10 12 11 8 10 2 2 1 2 3 4 5 7 8 7 6 7 9 9 11 5 7 10 8 5 6 5 4 4
11 13 10 9 6 6 6 9 11 7 4 1 6 25 6 11 13 11 9 8 4 2 1 0 2 3 5 7 6 7 6 7 7 10 7 4 6 7 7 3 6 4 3 2
10 9 8 10 11 7 11 7 8 8 11 12 12 14 14 13 12 13 11 9 3 4 3 2 1 3 4 6 6 6 5 7 6 9 6 4 5 6 5 3 4 10 8 10
Wind_Direction
223 246 241 112 24 0 335 325 306 299 85 11 285 292 300 307 247 324 296 275 282 156 110 120 218 197 134 136 135 154 42 339 264 292 321 307 343 339 323 294 309 24 43 36
248 238 60 33 20 340 321 296 310 336 5 332 280 274 283 287 69 353 327 303 273 141 133 161 205 152 161 159 161 161 193 213 26 354 6 337 313 311 334 314 37 33 43 14
263 40 50 1 333 326 305 0 10 328 312 293 265 267 242 81 52 18 329 328 336 167 142 157 179 182 189 171 102 140 76 59 45 34 356 3 349 335 322 356 329 0 350 339
278 84 358 302 267 52 309 13 326 304 301 294 334 299 97 109 108 144 122 305 309 311 140 181 336 191 53 55 186 77 81 70 76 61 354 12 309 331 339 329 335 336 338 323
51 103 209 258 58 37 324 325 283 269 270 281 268 244 142 166 93 42 32 7 249 280 316 116 154 191 79 126 50 78 99 104 86 359 328 329 320 316 323 325 326 326 315 308
3 50 347 3 15 246 288 300 310 276 249 243 153 306 96 90 57 41 64 27 1 342 318 113 100 55 298 88 73 75 53 59 34 17 348 331 326 323 321 329 314 315 322 314
206 181 106 329 286 192 358 358 321 281 278 189 194 258 83 107 79 59 41 18 22 304 322 80 134 172 71 42 48 22 35 20 1 350 316 339 321 341 316 320 319 327 314 314
245 124 121 131 29 357 302 341 334 339 318 324 310 251 110 90 85 81 54 45 344 352 3 7 15 40 19 37 28 11 356 326 351 5 347 328 6 338 327 335 321 307 302 294
342 71 110 89 348 4 352 338 345 299 270 255 285 91 96 122 137 155 120 349 281 276 20 335 327 51 34 12 29 342 316 10 5 350 336 12 2 338 321 314 304 304 304 303
339 317 315 152 249 205 281 343 332 224 300 322 334 351 77 41 38 16 356 347 328 117 122 309 304 321 55 33 336 1 22 2 350 337 347 352 350 337 312 307 309 325 310 305
313 319 296 293 16 283 302 311 255 347 288 298 298 46 83 54 15 14 7 340 349 18 6 358 13 7 33 17 357 22 4 350 336 336 350 349 337 314 318 321 322 313 312 318
67 354 309 315 259 236 314 312 346 314 301 308 322 302 58 20 32 20 72 352 27 359 328 320 324 11 25 20 23 3 5 338 331 341 345 334 324 353 347 333 321 311 299 301
70 231 275 294 228 61 301 17 258 226 274 275 280 283 118 16 44 16 11 4 339 321 330 348 359 6 10 21 18 8 347 336 338 344 339 336 337 346 323 313 301 297 302 299
3 287 273 281 301 315 294 304 293 292 249 270 278 311 320 351 37 2 3 0 349 349 343 349 10 10 6 19 19 356 350 340 354 335 327 340 341 336 322 306 296 304 312 303
271 259 271 280 287 298 296 286 292 289 282 275 273 283 315 24 16 351 335 315 316 345 349 358 15 17 359 19 5 352 342 358 350 331 332 337 340 329 315 307 308 302 302 295
181 275 285 277 286 276 269 297 288 277 267 279 284 294 43 9 344 352 355 337 350 360 350 350 359 8 17 6 353 341 343 5 350 348 339 331 326 316 314 320 320 307 301 295
214 253 281 264 280 290 282 274 293 333 270 280 297 302 348 336 343 354 320 323 33 356 352 352 5 21 22 8 345 347 342 10 356 342 332 331 321 320 334 327 319 312 309 303
205 242 258 266 272 270 272 269 250 307 314 328 306 291 293 337 21 337 296 27 12 5 1 355 360 15 15 352 352 347 339 7 356 333 326 339 327 329 332 322 315 313 313 312
225 244 268 264 267 270 277 317 84 284 299 342 312 284 348 356 360 54 48 34 3 20 356 353 14 8 357 6 357 333 1 0 336 336 336 331 322 333 329 321 318 316 313 314
51 2 301 280 282 282 303 323 91 37 290 356 335 7 345 353 314 70 55 9 12 19 4 1 356 325 14 13 349 344 355 354 342 340 328 320 320 338 325 321 319 311 308 309
194 232 249 259 15 301 19 357 42 241 26 359 351 319 271 330 358 352 324 260 326 55 293 327 320 355 21 10 353 5 353 355 339 324 316 316 347 339 323 319 314 309 308 336
180 212 231 221 215 263 69 37 320 8 354 324 335 327 311 343 339 327 329 318 258 317 322 1 343 7 5 22 27 354 358 345 331 320 318 317 353 339 326 323 327 336 356 354
100 303 150 181 237 214 198 195 211 252 330 307 310 297 335 327 309 313 330 315 349 19 349 301 5 336 28 43 28 350 3 337 326 315 322 328 360 341 332 339 343 350 356 2
321 135 200 197 239 310 215 261 48 55 47 38 315 313 320 302 300 295 309 315 288 272 284 32 345 354 9 44 18 9 8 335 322 321 324 347 360 340 341 13 356 354 4 358
298 322 313 303 260 284 258 67 41 44 9 349 323 295 334 312 304 313 318 316 263 210 154 103 334 15 16 47 17 29 360 334 329 321 325 5 1 341 338 72 16 352 26 317
301 324 321 317 334 331 338 344 345 335 327 320 302 312 301 307 312 319 319 309 236 181 181 115 346 43 30 39 24 30 2 327 329 321 337 36 357 341 343 30 58 44 49 50